{"data":{"norad_id":69413,"intl_designator":"2026-125N","name":"QIANFAN-195","alt_names":[],"object_type":"PAYLOAD","status":"ACTIVE","operator":null,"country":"PRC","launch_date":"2026-06-05","launch_site_code":"WSC","launch_vehicle":null,"mission":null,"orbit_class":"UNKNOWN","rcs_meters":null,"size_class":null,"mass_kg":null,"dimensions":null,"purposes":[],"wikipedia_slug":null,"has_3d_model":false,"image_url":null,"decayed_at":null,"tle_current":{"epoch":"2026-09-20T03:18:51.596352Z","epoch_age_seconds":65971,"freshness":"FRESH","line1":"1 69413U 26125N   26263.13809718  .00000038  00000+0  40937-4 0  9992","line2":"2 69413  88.9900 270.3314 0001929  89.1206 271.0166 13.51011841 14784","mean_motion":13.51011841,"eccentricity":0.0001929,"inclination_deg":88.99,"raan_deg":270.3314,"arg_perigee_deg":89.1206,"mean_anomaly_deg":271.0166,"bstar":4.0937e-5,"rev_number":1478,"period_min":106.58677861285,"perigee_km":1067.1016101748,"apogee_km":1069.9745374182,"semimajor_km":7446.6750737965,"source":"CELESTRAK","updated_at":"2026-09-20T09:00:24.868005Z"}}}